Location: Newark
(55.4390°N, 25.0170°E)
Time: 23:30:28
(UTC+00:00)

Envisat - Visible Passes

Search period start: 05 March 2021 00:00
Search period end: 15 March 2021 00:00
Orbit: 764 x 766 km, 98.1° (Epoch: 05 March)

Date Brightness Start Highest point End Pass type
(mag) Time Alt. Az. Time Alt. Az. Time Alt. Az.
05 Mar 4.2 03:43:23 10° NNE 03:48:19 46° E 03:53:11 10° S visible
05 Mar 6.4 16:47:54 10° WSW 16:50:21 13° W 16:52:49 10° NW visible
06 Mar 5.4 03:06:58 10° NE 03:11:10 25° E 03:15:20 10° SE visible
07 Mar 6.1 02:31:16 10° NE 02:33:49 14° E 02:36:22 10° ESE visible
07 Mar 3.4 04:08:42 10° NNE 04:13:48 71° ESE 04:18:53 10° S visible
08 Mar 4.6 03:32:02 10° NNE 03:36:48 38° E 03:41:31 10° SSE visible
09 Mar 5.7 02:55:45 10° NE 02:59:36 21° E 03:03:25 10° SE visible
10 Mar 6.3 02:20:42 10° ENE 02:22:11 11° E 02:23:40 10° E visible
10 Mar 3.8 03:57:17 10° NNE 04:02:21 59° ESE 04:07:21 10° S visible
10 Mar 6.8 17:04:10 10° W 17:04:35 10° W 17:05:00 10° WNW visible
11 Mar 5.0 03:20:43 10° NNE 03:25:17 32° E 03:29:48 10° SSE visible
12 Mar 5.9 02:44:37 10° NE 02:48:01 18° E 02:51:24 10° SE visible
13 Mar 4.1 03:45:54 10° NNE 03:50:52 49° E 03:55:47 10° S visible
14 Mar 5.3 03:09:26 10° NE 03:13:44 27° E 03:18:01 10° SSE visible
